METEOR 2-20 DEB

Satellite information

Favourite Embed

Satellite Type and Status

DEBRISIN ORBIT

Key statistics

Satellite METEOR 2-20 DEB at a glance.

Uptime

12762

Days in orbit

Revolutions

≈ 14.0

Per day

Orbit

LEO

Low Earth Orbit

Inclination

82.5

Latest

Satellite identification and parameters

Extended collection of information and parameters for METEOR 2-20 DEB.

Object identification

Identified? True

Debris? True

Object name: METEOR 2-20 DEB

International designator: 1990-086F

Object number (NORAD): 45524

Object ID (CCSDS): 45524

Country: COMMONWEALTH OF INDEPENDENT STATES (CIS)

Current information (Y/N): Y

RCS size: SMALL

Orbital parameters

Period: 102.971 minutes

Inclination: 82.5227 deg

SMA: 7277.316 km

Apoapsis: 912.79 km

Periapsis: 885.571 km

RAAN: 37.1136 deg

Eccentricy: 0.00187012

Argument of periapsis: 310.5256 deg

Mean anomaly: 49.4282 deg

Mean motion: 13.98446785 rev/day

Mean motion (dot): 0.00005265 rev/day2

B* drag term: 0.0036652085 1/REarth

Two-line elements (TLE)

Creation date: Sept. 3, 2025, 10:15 a.m.

Reference frame: TEME

Reference center: EARTH

Epoch: Sept. 3, 2025, 3:19 a.m. UTC

TLE line 0: 0 METEOR 2-20 DEB

TLE line 1: 1 45524U 90086F 25246.13835342 .00005265 00000-0 36652-2 0 9993

TLE line 2: 2 45524 82.5227 37.1136 0018701 310.5256 49.4282 13.98446785585189

Live tracking on map

Real-time ground track for satellite METEOR 2-20 DEB.

In-orbit conjunctions

A list of the most updated potential collisions computed for object METEOR 2-20 DEB.

Target Orbit TCA Probability of collision Miss distance Type
COSMOS 198 LEO 2024-09-25 10:51:25 0.0003585412 776.0 (m) PAYLOAD

Associated space launch

Second generation soviet meteorological satellite

METEOR 2-20 DEB was lifted into orbit during the mission ‘Tsiklon-3 | Meteor-2 20’, on board a Tsiklon-3 space rocket.

The launch took place on Sept. 28, 1990, 7:30 a.m. from 32/1.

For more information about the launch, click the button.

Launch to space Tsiklon-3 | Meteor-2 20
Tsiklon-3 | Meteor-2 20

Agency: N/A

Status: Launch Successful

Launch date: Sept. 28, 1990, 7:30 a.m. UTC

Rocket: Tsiklon-3

Launch pad: 32/1

Location: Plesetsk Cosmodrome, Russian Federation

...

Latest news about this satellite

There are no fresh news available about this satellite. Check back as we update our databases every day.


Newsletter sign-up

Weekly statistics, charts and insights to help you stay on top of the space industry.